Location: Newark
(51.1667°N, 4.4833°E)
Time: 14:05:49
(UTC+00:00)

CUTE-I - Visible Passes

Search period start: 14 December 2019 00:00
Search period end: 24 December 2019 00:00
Orbit: 811 x 824 km, 98.7° (Epoch: 13 December)

Date Brightness Start Highest point End Pass type
(mag) Time Alt. Az. Time Alt. Az. Time Alt. Az.
14 Dec ? 05:34:28 10° NNE 05:39:28 38° E 05:44:24 10° SSE visible
14 Dec ? 17:01:16 10° SSE 17:06:40 85° WSW 17:12:05 10° NNW visible
14 Dec ? 18:44:29 10° WSW 18:47:31 15° W 18:50:33 10° NW visible
15 Dec ? 05:13:23 10° NE 05:17:51 26° E 05:22:16 10° SSE visible
15 Dec ? 06:52:58 10° N 06:58:14 57° WNW 07:03:27 10° SW visible
15 Dec ? 16:39:56 10° SSE 16:45:16 68° ENE 16:50:38 10° N visible
15 Dec ? 18:21:40 10° SW 18:25:48 22° W 18:29:56 10° NW visible
16 Dec ? 04:52:33 10° NE 04:56:09 18° E 04:59:44 10° SE visible
16 Dec ? 06:31:28 10° NNE 06:36:51 81° WNW 06:42:12 10° SSW visible
16 Dec ? 16:18:48 10° SE 16:23:56 47° ENE 16:29:05 10° N visible
16 Dec ? 17:59:23 10° SSW 18:04:09 32° W 18:08:57 10° NNW visible
17 Dec ? 04:32:25 10° ENE 04:34:24 12° E 04:36:22 10° ESE visible
17 Dec ? 06:10:03 10° NNE 06:15:26 71° ESE 06:20:45 10° S visible
17 Dec ? 17:37:25 10° S 17:42:34 46° W 17:47:46 10° NNW visible
18 Dec ? 05:48:43 10° NNE 05:53:56 48° E 05:59:05 10° S visible
18 Dec ? 17:15:43 10° S 17:21:04 67° WSW 17:26:27 10° NNW visible
18 Dec ? 19:00:29 10° W 19:02:09 11° W 19:03:48 10° WNW visible
19 Dec ? 05:27:31 10° NNE 05:32:22 33° E 05:37:09 10° SSE visible
19 Dec ? 16:54:14 10° SSE 16:59:37 85° ENE 17:05:03 10° NNW visible
19 Dec ? 18:36:54 10° SW 18:40:22 17° W 18:43:51 10° NW visible
20 Dec ? 05:06:30 10° NE 05:10:43 23° E 05:14:54 10° SE visible
20 Dec ? 06:45:54 10° N 06:51:13 64° WNW 06:56:29 10° SSW visible
20 Dec ? 16:32:58 10° SSE 16:38:15 60° ENE 16:43:33 10° N visible
20 Dec ? 18:14:18 10° SSW 18:18:40 25° W 18:23:04 10° NW visible
21 Dec ? 04:45:49 10° NE 04:49:00 16° E 04:52:11 10° ESE visible
21 Dec ? 06:24:25 10° NNE 06:29:49 89° ESE 06:35:10 10° SSW visible
21 Dec ? 16:11:54 10° SE 16:16:56 42° ENE 16:21:59 10° N visible
21 Dec ? 17:52:08 10° SSW 17:57:03 36° W 18:02:00 10° NNW visible
22 Dec ? 04:26:34 10° ENE 04:27:13 10° E 04:27:52 10° E visible
22 Dec ? 06:03:01 10° NNE 06:08:22 63° ESE 06:13:38 10° S visible
22 Dec ? 17:30:16 10° S 17:35:30 52° W 17:40:46 10° NNW visible
23 Dec ? 05:41:44 10° NNE 05:46:51 43° E 05:51:53 10° S visible
23 Dec ? 17:08:38 10° S 17:14:01 76° WSW 17:19:25 10° NNW visible
23 Dec ? 18:52:32 10° WSW 18:54:59 13° W 18:57:26 10° WNW visible
